Weather History for KFAM - December, 2013

Change the Weather History Date:

Wednesday, December 25, 2013

  Actual Average (KCGI) Record (KCGI)
Temperature  
Mean Temperature 29 °F 34 °F  
Max Temperature 39 °F 43 °F 65 °F (1982)
Min Temperature 19 °F 25 °F -10 °F (2004)
Degree Days  
Heating Degree Days 36 31  
Month to date heating degree days 711  
Since 1 July heating degree days 1562  
Cooling Degree Days 0 0  
Month to date cooling degree days 0  
Year to date cooling degree days 1453  
Moisture  
Dew Point 22 °F    
Average Humidity 72    
Maximum Humidity 86    
Minimum Humidity 60    
Precipitation  
Precipitation 0.00 in 0.13 in 3.48 in (1987)
Month to date precipitation 3.51  
Year to date precipitation 46.07  
Sea Level Pressure  
Sea Level Pressure 30.31 in    
Wind  
Wind Speed 7 mph (SW)    
Max Wind Speed 16 mph    
Max Gust Speed 24 mph    
Visibility 10 miles    
Events      
T = Trace of Precipitation, MM = Missing Value Source: NWS Daily Summary

Daily Weather History Graph

Daily Weather History Graph

Search for Another Location

Airport or City:

Trip Planner

Search our weather history database for the weather conditions in past years. The results will help you decide how hot, cold, wet, or windy it might be!

Date:

Astronomy

Dec. 25, 2013 Rise Set
Actual Time 7:15 AM CST 4:48 PM CST
Civil Twilight 6:45 AM CST 5:18 PM CST
Nautical Twilight 6:12 AM CST 5:51 PM CST
Astronomical Twilight 5:40 AM CST 6:23 PM CST
Moon No Moon Rise 11:47 AM CST (12/25)
Length of Visible Light 10h 32m
Length of Day
9h 33m
Waning Gibbous, 48% of the Moon is Illuminated
Dec 25
Waning Gibbous
Jan 1
New
Jan 7
First Quarter
Jan 15
Full
Jan 23
Last Quarter

Hourly Weather History & Observations

Time (CST) Temp. Windchill Dew Point Humidity Pressure Visibility Wind Dir Wind Speed Gust Speed Precip Events Conditions
12:15 AM 19.4 °F 10.4 °F 12.2 °F 74% 30.36 in 10.0 mi SSE 6.9 mph - N/A   Clear
12:35 AM 19.4 °F 10.4 °F 12.2 °F 74% 30.35 in 10.0 mi SSE 6.9 mph - N/A   Clear
12:55 AM 19.4 °F 9.5 °F 12.2 °F 74% 30.34 in 10.0 mi SSE 8.1 mph - N/A   Clear
1:15 AM 19.4 °F 10.4 °F 12.2 °F 74% 30.34 in 10.0 mi South 6.9 mph - N/A   Clear
1:35 AM 19.4 °F 14.3 °F 12.2 °F 74% 30.36 in 10.0 mi SSW 3.5 mph - N/A   Partly Cloudy
1:55 AM 21.2 °F - 15.8 °F 80% 30.35 in 10.0 mi Calm Calm - N/A   Mostly Cloudy
2:15 AM 21.2 °F 14.9 °F 15.8 °F 80% 30.35 in 10.0 mi South 4.6 mph - N/A   Overcast
2:35 AM 21.2 °F 11.7 °F 15.8 °F 80% 30.35 in 10.0 mi South 8.1 mph - N/A   Overcast
2:55 AM 21.2 °F 10.9 °F 14.0 °F 74% 30.34 in 10.0 mi South 9.2 mph - N/A   Overcast
3:15 AM 23.0 °F 17.0 °F 14.0 °F 68% 30.34 in 10.0 mi South 4.6 mph - N/A   Overcast
3:35 AM 24.8 °F 17.9 °F 14.0 °F 64% 30.34 in 10.0 mi South 5.8 mph - N/A   Overcast
3:55 AM 24.8 °F 17.9 °F 15.8 °F 69% 30.33 in 10.0 mi South 5.8 mph - N/A   Overcast
4:15 AM 24.8 °F 16.1 °F 15.8 °F 69% 30.33 in 10.0 mi South 8.1 mph - N/A   Overcast
4:35 AM 24.8 °F 16.9 °F 15.8 °F 69% 30.32 in 10.0 mi South 6.9 mph - N/A   Overcast
4:55 AM 26.6 °F 19.1 °F 15.8 °F 64% 30.32 in 10.0 mi South 6.9 mph - N/A   Overcast
5:15 AM 26.6 °F 20.0 °F 15.8 °F 64% 30.32 in 10.0 mi South 5.8 mph - N/A   Overcast
5:35 AM 26.6 °F 19.1 °F 15.8 °F 64% 30.32 in 10.0 mi South 6.9 mph - N/A   Overcast
5:55 AM 26.6 °F 20.0 °F 15.8 °F 64% 30.32 in 10.0 mi South 5.8 mph - N/A   Overcast
6:15 AM 26.6 °F 20.0 °F 17.6 °F 69% 30.32 in 10.0 mi South 5.8 mph - N/A   Overcast
6:35 AM 26.6 °F 21.2 °F 17.6 °F 69% 30.32 in 10.0 mi South 4.6 mph - N/A   Overcast
6:55 AM 26.6 °F 22.6 °F 17.6 °F 69% 30.32 in 10.0 mi South 3.5 mph - N/A   Overcast
7:15 AM 26.6 °F 17.5 °F 17.6 °F 69% 30.32 in 10.0 mi South 9.2 mph - N/A   Overcast
7:35 AM 26.6 °F 20.0 °F 17.6 °F 69% 30.33 in 10.0 mi SSW 5.8 mph - N/A   Overcast
7:55 AM 26.6 °F 18.2 °F 17.6 °F 69% 30.33 in 10.0 mi South 8.1 mph - N/A   Overcast
8:15 AM 26.6 °F 16.8 °F 17.6 °F 69% 30.33 in 10.0 mi South 10.4 mph - N/A   Overcast
8:35 AM 28.4 °F 21.2 °F 19.4 °F 69% 30.33 in 10.0 mi South 6.9 mph - N/A   Overcast
8:55 AM 28.4 °F 19.7 °F 19.4 °F 69% 30.33 in 10.0 mi South 9.2 mph - N/A   Overcast
9:15 AM 28.4 °F 19.7 °F 21.2 °F 74% 30.33 in 10.0 mi South 9.2 mph - N/A   Overcast
9:35 AM 28.4 °F 19.1 °F 19.4 °F 69% 30.33 in 10.0 mi SSW 10.4 mph - N/A   Overcast
9:55 AM 30.2 °F 21.3 °F 21.2 °F 69% 30.33 in 10.0 mi SSW 10.4 mph - N/A   Overcast
10:15 AM 30.2 °F 24.3 °F 21.2 °F 69% 30.33 in 10.0 mi SSW 5.8 mph - N/A   Overcast
10:35 AM 30.2 °F 23.4 °F 21.2 °F 69% 30.33 in 10.0 mi SSW 6.9 mph - N/A   Overcast
10:55 AM 32.0 °F 25.6 °F 21.2 °F 64% 30.32 in 10.0 mi SW 6.9 mph - N/A   Overcast
11:15 AM 33.8 °F 27.0 °F 21.2 °F 60% 30.32 in 10.0 mi SSW 8.1 mph - N/A   Overcast
11:35 AM 33.8 °F 27.7 °F 23.0 °F 65% 30.31 in 10.0 mi SW 6.9 mph - N/A   Overcast
11:55 AM 33.8 °F 27.7 °F 23.0 °F 65% 30.29 in 10.0 mi SW 6.9 mph - N/A   Overcast
12:15 PM 35.6 °F 29.9 °F 26.6 °F 70% 30.29 in 10.0 mi West 6.9 mph - N/A   Overcast
12:35 PM 37.4 °F 31.4 °F 26.6 °F 65% 30.27 in 10.0 mi West 8.1 mph - N/A   Overcast
12:55 PM 37.4 °F 31.4 °F 24.8 °F 60% 30.27 in 10.0 mi West 8.1 mph - N/A   Overcast
1:15 PM 37.4 °F 30.8 °F 26.6 °F 65% 30.26 in 10.0 mi WSW 9.2 mph - N/A   Overcast
1:35 PM 37.4 °F 32.1 °F 26.6 °F 65% 30.26 in 10.0 mi West 6.9 mph - N/A   Overcast
1:55 PM 35.6 °F 28.6 °F 24.8 °F 65% 30.26 in 10.0 mi West 9.2 mph - N/A   Mostly Cloudy
2:15 PM 35.6 °F 30.7 °F 26.6 °F 70% 30.26 in 10.0 mi West 5.8 mph - N/A   Mostly Cloudy
2:35 PM 35.6 °F 30.7 °F 24.8 °F 65% 30.25 in 10.0 mi WSW 5.8 mph - N/A   Mostly Cloudy
2:55 PM 37.4 °F 32.1 °F 26.6 °F 65% 30.25 in 10.0 mi WSW 6.9 mph - N/A   Mostly Cloudy
3:15 PM 39.2 °F 34.2 °F 26.6 °F 61% 30.26 in 10.0 mi West 6.9 mph - N/A   Partly Cloudy
3:35 PM 39.2 °F 33.6 °F 26.6 °F 61% 30.26 in 10.0 mi WSW 8.1 mph - N/A   Clear
3:55 PM 37.4 °F 32.8 °F 26.6 °F 65% 30.26 in 10.0 mi West 5.8 mph - N/A   Clear
4:15 PM 37.4 °F 32.8 °F 26.6 °F 65% 30.26 in 10.0 mi WSW 5.8 mph - N/A   Clear
4:35 PM 37.4 °F 34.9 °F 26.6 °F 65% 30.27 in 10.0 mi WSW 3.5 mph - N/A   Clear
4:55 PM 35.6 °F 32.8 °F 26.6 °F 70% 30.27 in 10.0 mi SW 3.5 mph - N/A   Clear
5:15 PM 35.6 °F 31.7 °F 26.6 °F 70% 30.27 in 10.0 mi SSW 4.6 mph - N/A   Clear
5:35 PM 33.8 °F 30.8 °F 26.6 °F 75% 30.27 in 10.0 mi SW 3.5 mph - N/A   Clear
5:55 PM 32.0 °F 27.5 °F 24.8 °F 75% 30.27 in 10.0 mi SW 4.6 mph - N/A   Clear
6:15 PM 30.2 °F 24.3 °F 26.6 °F 86% 30.27 in 10.0 mi SSW 5.8 mph - N/A   Clear
6:35 PM 30.2 °F 26.7 °F 23.0 °F 75% 30.27 in 10.0 mi SSW 3.5 mph - N/A   Clear
6:55 PM 32.0 °F - 26.6 °F 80% 30.28 in 10.0 mi Calm Calm - N/A   Clear
7:15 PM 30.2 °F - 24.8 °F 80% 30.28 in 10.0 mi Calm Calm - N/A   Clear
7:35 PM 30.2 °F 25.4 °F 24.8 °F 80% 30.29 in 10.0 mi WNW 4.6 mph - N/A   Clear
7:55 PM 30.2 °F 24.3 °F 26.6 °F 86% 30.29 in 10.0 mi WNW 5.8 mph - N/A   Clear
8:15 PM 33.8 °F 24.8 °F 28.4 °F 81% 30.30 in 10.0 mi WNW 12.7 mph - N/A   Partly Cloudy
8:35 PM 33.8 °F 24.3 °F 28.4 °F 81% 30.31 in 10.0 mi WNW 13.8 mph 19.6 mph N/A   Mostly Cloudy
8:55 PM 33.8 °F 24.3 °F 28.4 °F 81% 30.31 in 10.0 mi WNW 13.8 mph 21.9 mph N/A   Overcast
9:15 PM 33.8 °F 25.8 °F 28.4 °F 81% 30.32 in 10.0 mi WNW 10.4 mph - N/A   Overcast
9:35 PM 33.8 °F 24.3 °F 28.4 °F 81% 30.32 in 10.0 mi WNW 13.8 mph 17.3 mph N/A   Overcast
9:55 PM 33.8 °F 23.5 °F 28.4 °F 81% 30.32 in 10.0 mi WNW 16.1 mph 24.2 mph N/A   Overcast
10:15 PM 33.8 °F 24.8 °F 28.4 °F 81% 30.32 in 10.0 mi WNW 12.7 mph 16.1 mph N/A   Overcast
10:35 PM 33.8 °F 25.8 °F 28.4 °F 81% 30.33 in 10.0 mi WNW 10.4 mph - N/A   Scattered Clouds
10:55 PM 32.0 °F 25.6 °F 26.6 °F 80% 30.33 in 10.0 mi WNW 6.9 mph - N/A   Clear
11:15 PM 30.2 °F 24.3 °F 26.6 °F 86% 30.33 in 10.0 mi WNW 5.8 mph - N/A   Mostly Cloudy
11:35 PM 30.2 °F 25.4 °F 26.6 °F 86% 30.33 in 10.0 mi West 4.6 mph - N/A   Mostly Cloudy
11:55 PM 30.2 °F 24.3 °F 26.6 °F 86% 30.33 in 10.0 mi West 5.8 mph - N/A   Partly Cloudy